| time (UTC) | temp F | wind direction | speed knots | gust knots | rain 1hr in | rain 24hr in | rain mn in | humidity % | barometer mb |
| 20260905223535 | 68 | 327 | 3.5 | 7.8 | 0.00 | 0.07 | 0.00 | 63 | 1022.9 |
| 20260905223059 | 68 | 323 | 1.7 | 6.1 | 0.00 | 0.07 | 0.00 | 63 | 1022.7 |
| 20260905222536 | 68 | 306 | 2.6 | 6.1 | 0.00 | 0.07 | 0.00 | 63 | 1022.7 |
| 20260905222036 | 68 | 329 | 1.7 | 6.1 | 0.00 | 0.07 | 0.00 | 63 | 1022.7 |
| 20260905221604 | 68 | 285 | 0.9 | 7.8 | 0.00 | 0.07 | 0.00 | 62 | 1022.6 |
| 20260905221037 | 69 | 317 | 1.7 | 7.8 | 0.00 | 0.07 | 0.00 | 62 | 1022.5 |
| 20260905220536 | 69 | 308 | 2.6 | 7.8 | 0.00 | 0.07 | 0.00 | 61 | 1022.5 |
| 20260905220108 | 69 | 306 | 2.6 | 8.7 | 0.00 | 0.07 | 0.00 | 61 | 1022.5 |
| 20260905215536 | 69 | 323 | 3.5 | 9.6 | 0.00 | 0.07 | 0.07 | 61 | 1022.4 |
| 20260905215059 | 69 | 257 | 2.6 | 9.6 | 0.00 | 0.07 | 0.07 | 61 | 1022.4 |
| 20260905214602 | 69 | 274 | 2.6 | 9.6 | 0.00 | 0.07 | 0.07 | 61 | 1022.4 |
| 20260905214036 | 69 | 267 | 3.5 | 7.8 | 0.00 | 0.07 | 0.07 | 60 | 1022.3 |
| 20260905213536 | 69 | 346 | 2.6 | 9.6 | 0.00 | 0.07 | 0.07 | 60 | 1022.3 |
| 20260905213100 | 70 | 306 | 4.3 | 11.3 | 0.00 | 0.07 | 0.07 | 60 | 1022.3 |
| 20260905212536 | 70 | 313 | 5.2 | 11.3 | 0.00 | 0.07 | 0.07 | 59 | 1022.2 |
| 20260905212034 | 70 | 237 | 4.3 | 11.3 | 0.00 | 0.07 | 0.07 | 59 | 1022.2 |
| 20260905211628 | 70 | 205 | 4.3 | 11.3 | 0.00 | 0.07 | 0.07 | 59 | 1022.0 |
| 20260905211036 | 70 | 277 | 4.3 | 11.3 | 0.00 | 0.07 | 0.07 | 59 | 1022.0 |
| 20260905210535 | 70 | 243 | 4.3 | 11.3 | 0.00 | 0.07 | 0.07 | 59 | 1022.1 |
| 20260905210115 | 70 | 216 | 5.2 | 12.2 | 0.00 | 0.07 | 0.07 | 58 | 1022.1 |
| 20260905205534 | 70 | 343 | 5.2 | 13.0 | 0.00 | 0.07 | 0.07 | 58 | 1022.1 |
| 20260905205037 | 70 | 232 | 5.2 | 13.0 | 0.00 | 0.07 | 0.07 | 58 | 1022.0 |
| 20260905204606 | 70 | 267 | 5.2 | 10.4 | 0.00 | 0.07 | 0.07 | 57 | 1022.1 |
| 20260905204036 | 70 | 274 | 6.1 | 10.4 | 0.00 | 0.07 | 0.07 | 57 | 1022.0 |
| 20260905203536 | 70 | 268 | 4.3 | 9.6 | 0.00 | 0.07 | 0.07 | 58 | 1021.9 |
| 20260905203118 | 70 | 260 | 3.5 | 10.4 | 0.00 | 0.07 | 0.07 | 57 | 1022.0 |
| 20260905202538 | 70 | 236 | 4.3 | 10.4 | 0.00 | 0.07 | 0.07 | 57 | 1021.9 |
| 20260905202035 | 70 | 228 | 5.2 | 10.4 | 0.00 | 0.07 | 0.07 | 57 | 1021.9 |
| 20260905201600 | 70 | 245 | 3.5 | 8.7 | 0.00 | 0.07 | 0.07 | 58 | 1022.0 |
| 20260905201034 | 70 | 208 | 3.5 | 7.0 | 0.00 | 0.07 | 0.07 | 58 | 1021.9 |
| 20260905200536 | 70 | 216 | 2.6 | 9.6 | 0.00 | 0.07 | 0.07 | 58 | 1021.8 |
| 20260905195541 | 70 | 245 | 4.3 | 11.3 | 0.00 | 0.07 | 0.07 | 58 | 1021.8 |
| 20260905195037 | 70 | 266 | 3.5 | 11.3 | 0.00 | 0.07 | 0.07 | 59 | 1021.8 |
| 20260905194556 | 70 | 246 | 3.5 | 9.6 | 0.00 | 0.07 | 0.07 | 59 | 1021.8 |
| 20260905194036 | 70 | 251 | 3.5 | 11.3 | 0.00 | 0.07 | 0.07 | 59 | 1021.7 |
| 20260905193537 | 70 | 238 | 4.3 | 11.3 | 0.00 | 0.07 | 0.07 | 59 | 1021.7 |
| 20260905193057 | 70 | 234 | 4.3 | 9.6 | 0.00 | 0.07 | 0.07 | 59 | 1021.7 |
| 20260905192535 | 70 | 277 | 3.5 | 11.3 | 0.00 | 0.07 | 0.07 | 59 | 1021.7 |
| 20260905192037 | 70 | 266 | 3.5 | 11.3 | 0.00 | 0.07 | 0.07 | 60 | 1021.7 |
| 20260905191557 | 70 | 236 | 2.6 | 7.8 | 0.00 | 0.07 | 0.07 | 60 | 1021.7 |
| 20260905191037 | 70 | 300 | 3.5 | 7.8 | 0.00 | 0.07 | 0.07 | 59 | 1021.6 |
| 20260905190537 | 70 | 304 | 2.6 | 6.1 | 0.00 | 0.07 | 0.07 | 59 | 1021.6 |
| 20260905190053 | 71 | 228 | 1.7 | 7.8 | 0.00 | 0.07 | 0.07 | 59 | 1021.6 |
| 20260905185538 | 71 | 284 | 2.6 | 7.8 | 0.00 | 0.07 | 0.07 | 59 | 1021.6 |
| 20260905185036 | 71 | 237 | 2.6 | 7.8 | 0.00 | 0.07 | 0.07 | 58 | 1021.5 |
| 20260905184559 | 71 | 219 | 2.6 | 8.7 | 0.00 | 0.07 | 0.07 | 58 | 1021.3 |
| 20260905184036 | 71 | 295 | 3.5 | 8.7 | 0.00 | 0.07 | 0.07 | 58 | 1021.3 |
| 20260905183536 | 71 | 306 | 1.7 | 8.7 | 0.00 | 0.07 | 0.07 | 57 | 1021.1 |
| 20260905183101 | 71 | 267 | 3.5 | 8.7 | 0.00 | 0.07 | 0.07 | 57 | 1021.1 |
| 20260905182535 | 71 | 317 | 3.5 | 8.7 | 0.00 | 0.07 | 0.07 | 57 | 1021.0 |
| 20260905182037 | 72 | 342 | 2.6 | 8.7 | 0.00 | 0.07 | 0.07 | 56 | 1020.9 |
| 20260905181610 | 72 | 255 | 3.5 | 8.7 | 0.00 | 0.07 | 0.07 | 56 | 1020.8 |
| 20260905181037 | 72 | 209 | 4.3 | 8.7 | 0.00 | 0.07 | 0.07 | 56 | 1020.8 |
| 20260905180536 | 72 | 270 | 3.5 | 9.6 | 0.00 | 0.07 | 0.07 | 56 | 1020.8 |
| 20260905180057 | 72 | 339 | 4.3 | 11.3 | 0.00 | 0.07 | 0.07 | 56 | 1020.8 |
| 20260905175537 | 72 | 280 | 2.6 | 11.3 | 0.00 | 0.07 | 0.07 | 55 | 1020.6 |
| 20260905175038 | 72 | 258 | 4.3 | 11.3 | 0.00 | 0.07 | 0.07 | 55 | 1020.5 |
| 20260905174600 | 72 | 266 | 4.3 | 10.4 | 0.00 | 0.07 | 0.07 | 55 | 1020.4 |
| 20260905174038 | 72 | 238 | 3.5 | 13.0 | 0.00 | 0.07 | 0.07 | 54 | 1020.4 |
| 20260905173540 | 72 | 240 | 7.0 | 13.0 | 0.00 | 0.07 | 0.07 | 54 | 1020.3 |
| 20260905173058 | 73 | 269 | 4.3 | 11.3 | 0.00 | 0.07 | 0.07 | 54 | 1020.3 |
| 20260905172536 | 73 | 286 | 4.3 | 14.8 | 0.00 | 0.07 | 0.07 | 54 | 1020.2 |
| 20260905172038 | 73 | 312 | 5.2 | 14.8 | 0.00 | 0.07 | 0.07 | 53 | 1020.2 |
| 20260905171558 | 73 | 311 | 4.3 | 10.4 | 0.00 | 0.07 | 0.07 | 53 | 1020.1 |
| 20260905171036 | 73 | 309 | 3.5 | 13.0 | 0.00 | 0.07 | 0.07 | 53 | 1020.2 |
| 20260905170536 | 73 | 276 | 6.1 | 13.0 | 0.00 | 0.07 | 0.07 | 52 | 1020.1 |
| 20260905170056 | 73 | 250 | 7.0 | 13.9 | 0.00 | 0.07 | 0.07 | 52 | 1020.0 |
| 20260905165540 | 74 | 279 | 4.3 | 13.9 | 0.00 | 0.07 | 0.07 | 52 | 1019.9 |
| 20260905165037 | 74 | 311 | 7.0 | 14.8 | 0.00 | 0.07 | 0.07 | 52 | 1019.8 |
| 20260905164558 | 74 | 355 | 6.1 | 14.8 | 0.00 | 0.07 | 0.07 | 51 | 1019.8 |
| 20260905164035 | 74 | 319 | 5.2 | 14.8 | 0.00 | 0.07 | 0.07 | 51 | 1019.7 |
| 20260905163536 | 74 | 247 | 7.0 | 13.0 | 0.00 | 0.07 | 0.07 | 51 | 1019.6 |
| 20260905163102 | 74 | 239 | 7.0 | 14.8 | 0.00 | 0.07 | 0.07 | 51 | 1019.6 |
| 20260905162537 | 74 | 300 | 6.1 | 14.8 | 0.00 | 0.07 | 0.07 | 51 | 1019.5 |
| 20260905162038 | 74 | 230 | 5.2 | 13.0 | 0.00 | 0.07 | 0.07 | 50 | 1019.5 |
| 20260905161607 | 75 | 309 | 5.2 | 13.0 | 0.00 | 0.07 | 0.07 | 50 | 1019.5 |
| 20260905161036 | 75 | 297 | 3.5 | 14.8 | 0.00 | 0.07 | 0.07 | 51 | 1019.6 |
| 20260905160536 | 75 | 306 | 3.5 | 14.8 | 0.00 | 0.07 | 0.07 | 51 | 1019.5 |
| 20260905160130 | 75 | 306 | 6.1 | 14.8 | 0.00 | 0.07 | 0.07 | 50 | 1019.5 |
| 20260905155537 | 75 | 226 | 7.8 | 15.6 | 0.00 | 0.07 | 0.07 | 50 | 1019.6 |
| 20260905155035 | 75 | 278 | 5.2 | 17.4 | 0.00 | 0.07 | 0.07 | 49 | 1019.5 |
| 20260905154603 | 75 | 360 | 5.2 | 17.4 | 0.00 | 0.07 | 0.07 | 50 | 1019.5 |
| 20260905154036 | 75 | 329 | 7.0 | 14.8 | 0.00 | 0.07 | 0.07 | 49 | 1019.5 |
| 20260905153537 | 75 | 346 | 7.0 | 17.4 | 0.00 | 0.07 | 0.07 | 49 | 1019.4 |
| 20260905153059 | 75 | 242 | 6.1 | 17.4 | 0.00 | 0.07 | 0.07 | 50 | 1019.3 |
| 20260905152536 | 75 | 289 | 8.7 | 14.8 | 0.00 | 0.07 | 0.07 | 49 | 1019.4 |
| 20260905152037 | 75 | 316 | 8.7 | 14.8 | 0.00 | 0.07 | 0.07 | 50 | 1019.3 |
| 20260905151609 | 75 | 321 | 4.3 | 20.0 | 0.00 | 0.07 | 0.07 | 51 | 1019.3 |
| 20260905151036 | 75 | 273 | 6.1 | 24.3 | 0.00 | 0.07 | 0.07 | 50 | 1019.3 |
| 20260905150536 | 75 | 283 | 8.7 | 24.3 | 0.00 | 0.07 | 0.07 | 50 | 1019.3 |
| 20260905150058 | 75 | 333 | 7.0 | 16.5 | 0.00 | 0.07 | 0.07 | 50 | 1019.3 |
| 20260905145537 | 75 | 277 | 6.1 | 14.8 | 0.00 | 0.07 | 0.07 | 50 | 1019.4 |
| 20260905145036 | 75 | 334 | 7.0 | 14.8 | 0.00 | 0.07 | 0.07 | 51 | 1019.4 |
| 20260905144555 | 75 | 246 | 7.0 | 14.8 | 0.00 | 0.07 | 0.07 | 51 | 1019.4 |
| 20260905144036 | 75 | 232 | 7.0 | 13.0 | 0.00 | 0.07 | 0.07 | 51 | 1019.4 |
| 20260905143537 | 75 | 275 | 5.2 | 13.9 | 0.00 | 0.07 | 0.07 | 51 | 1019.3 |
| 20260905143058 | 74 | 222 | 6.1 | 17.4 | 0.00 | 0.07 | 0.07 | 52 | 1019.3 |
| 20260905142538 | 74 | 240 | 5.2 | 17.4 | 0.00 | 0.07 | 0.07 | 52 | 1019.3 |
| 20260905142036 | 74 | 288 | 7.8 | 18.2 | 0.00 | 0.07 | 0.07 | 52 | 1019.5 |
| 20260905141555 | 74 | 242 | 7.8 | 18.2 | 0.00 | 0.07 | 0.07 | 52 | 1019.5 |
| 20260905141036 | 74 | 275 | 7.8 | 17.4 | 0.00 | 0.07 | 0.07 | 52 | 1019.4 |
| 20260905140537 | 74 | 238 | 5.2 | 15.6 | 0.00 | 0.07 | 0.07 | 53 | 1019.5 |
| 20260905140107 | 74 | 232 | 5.2 | 14.8 | 0.00 | 0.07 | 0.07 | 53 | 1019.6 |
| 20260905135536 | 74 | 257 | 7.8 | 14.8 | 0.00 | 0.07 | 0.07 | 53 | 1019.6 |
| 20260905135037 | 74 | 325 | 7.0 | 12.2 | 0.00 | 0.07 | 0.07 | 53 | 1019.6 |
| 20260905134604 | 74 | 201 | 7.0 | 12.2 | 0.00 | 0.07 | 0.07 | 54 | 1019.6 |
| 20260905134038 | 74 | 286 | 7.0 | 15.6 | 0.00 | 0.07 | 0.07 | 53 | 1019.6 |
| 20260905133537 | 74 | 182 | 7.8 | 19.1 | 0.00 | 0.07 | 0.07 | 53 | 1019.6 |
| 20260905133100 | 74 | 244 | 7.8 | 19.1 | 0.00 | 0.07 | 0.07 | 53 | 1019.7 |
| 20260905132539 | 73 | 252 | 9.6 | 16.5 | 0.00 | 0.07 | 0.07 | 53 | 1019.7 |
| 20260905132037 | 73 | 270 | 8.7 | 17.4 | 0.00 | 0.07 | 0.07 | 54 | 1019.8 |
| 20260905131604 | 73 | 164 | 7.8 | 17.4 | 0.00 | 0.07 | 0.07 | 54 | 1019.8 |
| 20260905131036 | 73 | 277 | 10.4 | 17.4 | 0.00 | 0.07 | 0.07 | 53 | 1019.8 |
| 20260905130537 | 74 | 284 | 6.1 | 13.0 | 0.00 | 0.07 | 0.07 | 53 | 1019.8 |
| 20260905130056 | 73 | 342 | 6.1 | 13.0 | 0.00 | 0.07 | 0.07 | 53 | 1019.8 |
| 20260905125536 | 73 | 258 | 7.0 | 17.4 | 0.00 | 0.07 | 0.07 | 55 | 1019.8 |
| 20260905125036 | 73 | 317 | 7.8 | 17.4 | 0.00 | 0.07 | 0.07 | 55 | 1019.7 |
| 20260905124557 | 73 | 262 | 8.7 | 19.1 | 0.00 | 0.07 | 0.07 | 55 | 1019.7 |
| 20260905124037 | 72 | 348 | 7.0 | 19.1 | 0.00 | 0.07 | 0.07 | 56 | 1019.8 |
| 20260905123536 | 72 | 297 | 8.7 | 17.4 | 0.00 | 0.07 | 0.07 | 56 | 1019.8 |
| 20260905123103 | 73 | 298 | 9.6 | 17.4 | 0.00 | 0.07 | 0.07 | 56 | 1019.8 |
| 20260905122536 | 72 | 292 | 7.0 | 17.4 | 0.00 | 0.07 | 0.07 | 57 | 1019.7 |
| 20260905122036 | 72 | 323 | 7.0 | 17.4 | 0.00 | 0.07 | 0.07 | 58 | 1019.7 |
| 20260905121601 | 72 | 276 | 7.0 | 17.4 | 0.00 | 0.07 | 0.07 | 57 | 1019.8 |
| 20260905121036 | 72 | 335 | 7.8 | 15.6 | 0.00 | 0.07 | 0.07 | 57 | 1019.7 |
| 20260905120535 | 72 | 270 | 4.3 | 18.2 | 0.00 | 0.07 | 0.07 | 58 | 1019.8 |
| 20260905120117 | 71 | 209 | 7.8 | 18.2 | 0.00 | 0.07 | 0.07 | 58 | 1019.8 |
| 20260905115536 | 72 | 285 | 8.7 | 17.4 | 0.00 | 0.07 | 0.07 | 58 | 1019.9 |
| 20260905115035 | 71 | 215 | 8.7 | 16.5 | 0.00 | 0.07 | 0.07 | 58 | 1019.9 |
| 20260905114554 | 71 | 332 | 8.7 | 16.5 | 0.00 | 0.07 | 0.07 | 59 | 1019.9 |
| 20260905114035 | 71 | 286 | 9.6 | 18.2 | 0.00 | 0.07 | 0.07 | 58 | 1019.9 |
| 20260905113535 | 71 | 340 | 8.7 | 19.1 | 0.00 | 0.07 | 0.07 | 58 | 1020.0 |
| 20260905113101 | 71 | 236 | 8.7 | 20.0 | 0.00 | 0.07 | 0.07 | 58 | 1020.0 |
| 20260905112537 | 71 | 307 | 8.7 | 20.0 | 0.00 | 0.07 | 0.07 | 57 | 1019.9 |
| 20260905112037 | 71 | 314 | 11.3 | 20.0 | 0.00 | 0.07 | 0.07 | 59 | 1020.0 |
| 20260905111613 | 71 | 306 | 7.0 | 16.5 | 0.00 | 0.07 | 0.07 | 60 | 1019.8 |
| 20260905111037 | 71 | 216 | 6.1 | 19.1 | 0.00 | 0.07 | 0.07 | 60 | 1020.0 |
| 20260905110535 | 71 | 225 | 7.0 | 19.1 | 0.00 | 0.07 | 0.07 | 61 | 1019.9 |
| 20260905110100 | 71 | 280 | 5.2 | 13.9 | 0.00 | 0.07 | 0.07 | 61 | 1019.9 |
| 20260905105536 | 71 | 275 | 5.2 | 14.8 | 0.00 | 0.07 | 0.07 | 62 | 1020.0 |
| 20260905105036 | 70 | 319 | 5.2 | 20.9 | 0.00 | 0.07 | 0.07 | 64 | 1020.0 |
| 20260905104554 | 70 | 239 | 7.0 | 20.9 | 0.00 | 0.07 | 0.07 | 64 | 1019.9 |
| 20260905104036 | 69 | 251 | 9.6 | 20.9 | 0.00 | 0.07 | 0.07 | 64 | 1019.9 |
| 20260905103537 | 69 | 238 | 7.0 | 17.4 | 0.00 | 0.07 | 0.07 | 65 | 1019.9 |
| 20260905103059 | 68 | 294 | 8.7 | 21.7 | 0.00 | 0.07 | 0.07 | 65 | 1019.9 |
| 20260905102536 | 68 | 292 | 11.3 | 21.7 | 0.00 | 0.07 | 0.07 | 65 | 1019.9 |
| 20260905102035 | 68 | 324 | 12.2 | 21.7 | 0.00 | 0.07 | 0.07 | 65 | 1020.0 |
| 20260905101555 | 68 | 13 | 8.7 | 17.4 | 0.00 | 0.07 | 0.07 | 66 | 1020.0 |
| 20260905101036 | 68 | 303 | 7.0 | 14.8 | 0.00 | 0.07 | 0.07 | 66 | 1019.9 |
| 20260905100537 | 69 | 267 | 3.5 | 14.8 | 0.00 | 0.07 | 0.07 | 67 | 1020.2 |
| 20260905100059 | 68 | 288 | 3.5 | 13.0 | 0.00 | 0.07 | 0.07 | 68 | 1019.8 |
| 20260905095536 | 67 | 260 | 3.5 | 14.8 | 0.00 | 0.07 | 0.07 | 69 | 1020.0 |
| 20260905095035 | 67 | 336 | 7.0 | 14.8 | 0.00 | 0.07 | 0.07 | 69 | 1020.1 |
| 20260905094556 | 67 | 30 | 6.1 | 15.6 | 0.00 | 0.07 | 0.07 | 70 | 1020.1 |
| 20260905094037 | 66 | 227 | 7.8 | 15.6 | 0.00 | 0.07 | 0.07 | 70 | 1020.1 |
| 20260905093537 | 66 | 317 | 7.8 | 15.6 | 0.00 | 0.07 | 0.07 | 70 | 1020.1 |
| 20260905093059 | 66 | 269 | 6.1 | 14.8 | 0.00 | 0.07 | 0.07 | 70 | 1020.1 |
| 20260905092538 | 66 | 340 | 4.3 | 11.3 | 0.00 | 0.07 | 0.07 | 71 | 1020.2 |
| 20260905092035 | 65 | 254 | 5.2 | 11.3 | 0.00 | 0.07 | 0.07 | 71 | 1020.1 |
| 20260905091623 | 65 | 5 | 3.5 | 11.3 | 0.00 | 0.07 | 0.07 | 72 | 1020.2 |
| 20260905091036 | 64 | 206 | 1.7 | 7.8 | 0.00 | 0.07 | 0.07 | 73 | 1020.2 |
| 20260905090536 | 64 | 286 | 2.6 | 7.8 | 0.00 | 0.07 | 0.07 | 74 | 1020.4 |
| 20260905090119 | 63 | 248 | 3.5 | 7.8 | 0.00 | 0.07 | 0.07 | 75 | 1020.1 |
| 20260905085537 | 63 | 286 | 2.6 | 7.8 | 0.00 | 0.07 | 0.07 | 75 | 1020.2 |
| 20260905085034 | 63 | 254 | 2.6 | 7.8 | 0.00 | 0.07 | 0.07 | 75 | 1020.2 |
| 20260905084608 | 63 | 300 | 1.7 | 7.8 | 0.00 | 0.07 | 0.07 | 75 | 1020.2 |
| 20260905084037 | 63 | 297 | 4.3 | 7.8 | 0.00 | 0.07 | 0.07 | 74 | 1020.2 |
| 20260905083535 | 63 | 301 | 1.7 | 7.8 | 0.00 | 0.07 | 0.07 | 74 | 1020.1 |
| 20260905083057 | 63 | 226 | 1.7 | 7.8 | 0.00 | 0.07 | 0.07 | 73 | 1020.5 |
| 20260905082536 | 63 | 292 | 2.6 | 7.8 | 0.00 | 0.07 | 0.07 | 72 | 1020.6 |
| 20260905082034 | 64 | 220 | 1.7 | 6.1 | 0.00 | 0.07 | 0.07 | 72 | 1020.8 |
| 20260905081555 | 64 | 277 | 0.9 | 6.1 | 0.00 | 0.07 | 0.07 | 70 | 1020.7 |
| 20260905081035 | 64 | 182 | 1.7 | 6.1 | 0.00 | 0.07 | 0.07 | 70 | 1020.8 |
| 20260905080538 | 64 | 209 | 3.5 | 7.8 | 0.00 | 0.07 | 0.07 | 69 | 1020.8 |
| 20260905075535 | 64 | 352 | 2.6 | 7.8 | 0.00 | 0.07 | 0.07 | 69 | 1020.6 |
| 20260905075036 | 64 | 270 | 2.6 | 8.7 | 0.00 | 0.07 | 0.07 | 69 | 1020.8 |
| 20260905074600 | 64 | 259 | 1.7 | 8.7 | 0.00 | 0.07 | 0.07 | 69 | 1021.1 |
| 20260905074037 | 63 | 235 | 2.6 | 8.7 | 0.00 | 0.07 | 0.07 | 69 | 1021.1 |
| 20260905073536 | 64 | 256 | 2.6 | 7.0 | 0.00 | 0.07 | 0.07 | 68 | 1021.0 |
| 20260905073103 | 63 | 283 | 3.5 | 7.0 | 0.00 | 0.07 | 0.07 | 68 | 1021.2 |
| 20260905072536 | 64 | 304 | 2.6 | 7.0 | 0.00 | 0.07 | 0.07 | 68 | 1021.0 |
| 20260905072036 | 64 | 306 | 3.5 | 7.8 | 0.00 | 0.07 | 0.07 | 68 | 1021.0 |
| 20260905071554 | 64 | 225 | 2.6 | 7.8 | 0.00 | 0.07 | 0.07 | 68 | 1021.0 |
| 20260905071035 | 64 | 306 | 3.5 | 7.8 | 0.00 | 0.07 | 0.07 | 67 | 1020.7 |
| 20260905070536 | 64 | 298 | 2.6 | 7.8 | 0.00 | 0.07 | 0.07 | 68 | 1020.5 |
| 20260905070114 | 64 | 275 | 2.6 | 7.8 | 0.00 | 0.07 | 0.07 | 68 | 1020.5 |
| 20260905065538 | 64 | 299 | 3.5 | 7.8 | 0.00 | 0.07 | 0.07 | 68 | 1020.6 |
| 20260905065037 | 64 | 293 | 2.6 | 8.7 | 0.00 | 0.07 | 0.07 | 67 | 1020.4 |
| 20260905064558 | 64 | 313 | 3.5 | 9.6 | 0.00 | 0.07 | 0.07 | 67 | 1020.7 |
| 20260905064038 | 64 | 288 | 4.3 | 10.4 | 0.00 | 0.07 | 0.07 | 66 | 1020.7 |
| 20260905063535 | 64 | 281 | 5.2 | 10.4 | 0.00 | 0.07 | 0.07 | 65 | 1020.7 |
| 20260905063106 | 64 | 346 | 5.2 | 8.7 | 0.00 | 0.07 | 0.07 | 64 | 1020.4 |
| 20260905062536 | 65 | 323 | 4.3 | 14.8 | 0.00 | 0.07 | 0.07 | 64 | 1020.4 |
| 20260905062035 | 65 | 321 | 6.1 | 14.8 | 0.00 | 0.07 | 0.07 | 62 | 1020.2 |
| 20260905061619 | 65 | 324 | 5.2 | 18.2 | 0.00 | 0.07 | 0.07 | 61 | 1020.1 |
| 20260905061035 | 66 | 288 | 7.8 | 18.2 | 0.00 | 0.07 | 0.07 | 60 | 1019.7 |
| 20260905060539 | 67 | 304 | 6.1 | 18.2 | 0.00 | 0.07 | 0.07 | 59 | 1019.7 |
| 20260905060116 | 67 | 336 | 7.0 | 18.2 | 0.00 | 0.07 | 0.07 | 58 | 1019.5 |
| 20260905055535 | 67 | 5 | 5.2 | 11.3 | 0.00 | 0.07 | 0.07 | 58 | 1019.3 |
| 20260905055036 | 67 | 288 | 5.2 | 12.2 | 0.00 | 0.07 | 0.07 | 58 | 1018.7 |
| 20260905054559 | 67 | 47 | 5.2 | 14.8 | 0.00 | 0.07 | 0.07 | 59 | 1018.6 |
| 20260905054036 | 67 | 329 | 6.1 | 14.8 | 0.00 | 0.07 | 0.07 | 59 | 1018.5 |
| 20260905053537 | 67 | 285 | 6.1 | 14.8 | 0.00 | 0.07 | 0.07 | 59 | 1018.3 |
| 20260905053057 | 67 | 328 | 4.3 | 13.0 | 0.00 | 0.07 | 0.07 | 60 | 1018.1 |
| 20260905052540 | 67 | 286 | 5.2 | 13.0 | 0.00 | 0.07 | 0.07 | 61 | 1018.0 |
| 20260905052039 | 67 | 272 | 3.5 | 16.5 | 0.00 | 0.07 | 0.07 | 62 | 1017.7 |
| 20260905051554 | 67 | 291 | 7.0 | 16.5 | 0.00 | 0.07 | 0.07 | 62 | 1017.8 |
| 20260905051036 | 66 | 278 | 6.1 | 13.9 | 0.00 | 0.07 | 0.07 | 63 | 1017.4 |
| 20260905050536 | 66 | 347 | 4.3 | 11.3 | 0.00 | 0.07 | 0.07 | 65 | 1017.4 |
| 20260905050054 | 66 | 281 | 3.5 | 11.3 | 0.00 | 0.07 | 0.07 | 65 | 1017.3 |
| 20260905045535 | 66 | 320 | 3.5 | 11.3 | 0.00 | 0.07 | 0.07 | 66 | 1017.2 |
| 20260905045037 | 66 | 340 | 3.5 | 11.3 | 0.00 | 0.07 | 0.07 | 66 | 1016.9 |
| 20260905044601 | 66 | 313 | 4.3 | 13.0 | 0.00 | 0.07 | 0.07 | 66 | 1016.7 |
| 20260905044036 | 66 | 303 | 6.1 | 13.0 | 0.01 | 0.07 | 0.07 | 68 | 1016.5 |
| 20260905043535 | 65 | 321 | 5.2 | 11.3 | 0.01 | 0.07 | 0.07 | 70 | 1016.2 |
| 20260905043058 | 65 | 22 | 4.3 | 10.4 | 0.01 | 0.07 | 0.07 | 72 | 1016.6 |
| 20260905042535 | 65 | 292 | 4.3 | 9.6 | 0.01 | 0.07 | 0.07 | 72 | 1016.8 |
| 20260905042035 | 65 | 263 | 2.6 | 12.2 | 0.02 | 0.07 | 0.07 | 72 | 1017.2 |
| 20260905041601 | 65 | 336 | 5.2 | 12.2 | 0.03 | 0.07 | 0.07 | 72 | 1017.1 |
| 20260905041035 | 65 | 283 | 4.3 | 10.4 | 0.03 | 0.07 | 0.07 | 72 | 1016.9 |
| 20260905040535 | 65 | 347 | 4.3 | 13.0 | 0.03 | 0.07 | 0.07 | 72 | 1016.5 |
| 20260905040103 | 66 | 301 | 4.3 | 13.0 | 0.03 | 0.07 | 0.07 | 71 | 1016.4 |
| 20260905035535 | 66 | 344 | 3.5 | 12.2 | 0.03 | 0.07 | 0.07 | 72 | 1016.6 |
| 20260905035038 | 66 | 337 | 5.2 | 12.2 | 0.03 | 0.07 | 0.07 | 73 | 1016.2 |
| 20260905034611 | 66 | 304 | 5.2 | 12.2 | 0.05 | 0.07 | 0.07 | 74 | 1016.1 |
| 20260905034040 | 67 | 307 | 6.1 | 11.3 | 0.06 | 0.06 | 0.06 | 76 | 1016.2 |
| 20260905033535 | 67 | 257 | 3.5 | 7.8 | 0.06 | 0.06 | 0.06 | 76 | 1016.4 |
| 20260905033101 | 67 | 295 | 2.6 | 17.4 | 0.06 | 0.06 | 0.06 | 75 | 1015.8 |
| 20260905032536 | 68 | 314 | 7.0 | 17.4 | 0.06 | 0.06 | 0.06 | 73 | 1015.3 |
| 20260905032035 | 69 | 313 | 8.7 | 17.4 | 0.05 | 0.05 | 0.05 | 72 | 1015.3 |
| 20260905031559 | 70 | 312 | 5.2 | 17.4 | 0.03 | 0.03 | 0.03 | 72 | 1015.4 |
| 20260905031035 | 70 | 355 | 7.0 | 13.0 | 0.03 | 0.03 | 0.03 | 74 | 1015.3 |
| 20260905030535 | 70 | 301 | 7.0 | 13.0 | 0.03 | 0.03 | 0.03 | 74 | 1014.7 |
| 20260905025535 | 72 | 275 | 1.7 | 16.5 | 0.03 | 0.03 | 0.03 | 68 | 1013.8 |
| 20260905025036 | 73 | 281 | 4.3 | 16.5 | 0.03 | 0.03 | 0.03 | 63 | 1013.9 |
| 20260905024603 | 76 | 303 | 7.8 | 16.5 | 0.01 | 0.01 | 0.01 | 55 | 1014.1 |
| 20260905024036 | 76 | 285 | 2.6 | 7.0 | 0.00 | 0.00 | 0.00 | 53 | 1013.9 |
| 20260905023535 | 75 | 300 | 2.6 | 7.0 | 0.00 | 0.00 | 0.00 | 53 | 1013.4 |
| 20260905023054 | 75 | 314 | 2.6 | 7.0 | 0.00 | 0.00 | 0.00 | 53 | 1013.4 |
| 20260905022536 | 75 | 304 | 2.6 | 9.6 | 0.00 | 0.00 | 0.00 | 52 | 1013.4 |
| 20260905022036 | 75 | 317 | 3.5 | 9.6 | 0.00 | 0.00 | 0.00 | 52 | 1013.5 |
| 20260905021600 | 76 | 294 | 2.6 | 7.0 | 0.00 | 0.00 | 0.00 | 51 | 1013.6 |
| 20260905021035 | 76 | 305 | 3.5 | 7.0 | 0.00 | 0.00 | 0.00 | 52 | 1013.7 |
| 20260905020537 | 75 | 360 | 1.7 | 4.3 | 0.00 | 0.00 | 0.00 | 52 | 1013.5 |
| 20260905020058 | 75 | 320 | 1.7 | 3.5 | 0.00 | 0.00 | 0.00 | 52 | 1013.5 |
| 20260905015535 | 75 | 323 | 1.7 | 3.5 | 0.00 | 0.00 | 0.00 | 52 | 1013.4 |
| 20260905015035 | 76 | 312 | 0.9 | 3.5 | 0.00 | 0.00 | 0.00 | 50 | 1013.3 |
| 20260905014549 | 76 | 292 | 1.7 | 4.3 | 0.00 | 0.00 | 0.00 | 49 | 1013.3 |
| 20260905014038 | 76 | 269 | 1.7 | 5.2 | 0.00 | 0.00 | 0.00 | 49 | 1013.4 |
| 20260905013535 | 76 | 275 | 1.7 | 5.2 | 0.00 | 0.00 | 0.00 | 50 | 1013.4 |
| 20260905013056 | 76 | 286 | 1.7 | 5.2 | 0.00 | 0.00 | 0.00 | 50 | 1013.5 |
| 20260905012536 | 75 | 293 | 0.9 | 3.5 | 0.00 | 0.00 | 0.00 | 51 | 1013.5 |
| 20260905012037 | 75 | 349 | 0.9 | 3.5 | 0.00 | 0.00 | 0.00 | 51 | 1013.4 |
| 20260905011604 | 76 | 291 | 0.9 | 4.3 | 0.00 | 0.00 | 0.00 | 50 | 1013.4 |
| 20260905011035 | 76 | 335 | 0.9 | 4.3 | 0.00 | 0.00 | 0.00 | 50 | 1013.4 |
| 20260905010535 | 76 | 286 | 0.9 | 4.3 | 0.00 | 0.00 | 0.00 | 50 | 1013.4 |
| 20260905010104 | 76 | 276 | 0.9 | 5.2 | 0.00 | 0.00 | 0.00 | 51 | 1013.4 |
| 20260905005536 | 75 | 266 | 1.7 | 5.2 | 0.00 | 0.00 | 0.00 | 52 | 1013.4 |
| 20260905005035 | 74 | 304 | 0.9 | 3.5 | 0.00 | 0.00 | 0.00 | 54 | 1013.4 |
| 20260905004602 | 74 | 294 | 0.9 | 3.5 | 0.00 | 0.00 | 0.00 | 54 | 1013.4 |
| 20260905004036 | 74 | 327 | 1.7 | 2.6 | 0.00 | 0.00 | 0.00 | 54 | 1013.3 |
| 20260905003536 | 74 | 0 | 0.9 | 3.5 | 0.00 | 0.00 | 0.00 | 53 | 1013.3 |
| 20260905003059 | 74 | 286 | 1.7 | 3.5 | 0.00 | 0.00 | 0.00 | 53 | 1013.3 |
| 20260905002536 | 73 | 288 | 0.9 | 1.7 | 0.00 | 0.00 | 0.00 | 56 | 1013.2 |
| 20260905002035 | 73 | 288 | 0.0 | 2.6 | 0.00 | 0.00 | 0.00 | 56 | 1013.2 |
| 20260905001604 | 74 | 293 | 0.0 | 2.6 | 0.00 | 0.00 | 0.00 | 55 | 1013.1 |
| 20260905001035 | 73 | 294 | 0.9 | 2.6 | 0.00 | 0.00 | 0.00 | 55 | 1013.1 |
| 20260905000535 | 73 | 298 | 0.9 | 2.6 | 0.00 | 0.00 | 0.00 | 56 | 1013.0 |
| 20260905000113 | 73 | 299 | 0.9 | 3.5 | 0.00 | 0.00 | 0.00 | 57 | 1013.2 |
| 20260904235539 | 71 | 263 | 0.9 | 3.5 | 0.00 | 0.00 | 0.00 | 60 | 1013.1 |
| 20260904235035 | 70 | 313 | 0.9 | 1.7 | 0.00 | 0.00 | 0.00 | 64 | 1013.1 |
| 20260904234600 | 69 | 307 | 0.0 | 0.0 | 0.00 | 0.00 | 0.00 | 66 | 1013.1 |
| 20260904234035 | 69 | 0 | 0.0 | 0.0 | 0.00 | 0.00 | 0.00 | 67 | 1013.1 |
| 20260904233535 | 69 | 0 | 0.0 | 0.0 | 0.00 | 0.00 | 0.00 | 66 | 1013.1 |
| 20260904233119 | 69 | 0 | 0.0 | 0.0 | 0.00 | 0.00 | 0.00 | 66 | 1013.1 |
| 20260904232534 | 69 | 0 | 0.0 | 0.0 | 0.00 | 0.00 | 0.00 | 65 | 1013.1 |
| 20260904232036 | 69 | 0 | 0.0 | 0.0 | 0.00 | 0.00 | 0.00 | 65 | 1013.1 |
| 20260904231606 | 69 | 0 | 0.0 | 0.0 | 0.00 | 0.00 | 0.00 | 65 | 1013.1 |
| 20260904231035 | 69 | 0 | 0.0 | 0.0 | 0.00 | 0.00 | 0.00 | 65 | 1013.0 |
| 20260904230535 | 69 | 0 | 0.0 | 0.0 | 0.00 | 0.00 | 0.00 | 65 | 1013.0 |
| 20260904230100 | 69 | 0 | 0.0 | 0.0 | 0.00 | 0.00 | 0.00 | 65 | 1013.0 |
| 20260904225534 | 69 | 0 | 0.0 | 0.0 | 0.00 | 0.00 | 0.00 | 65 | 1012.9 |
| 20260904225035 | 69 | 0 | 0.0 | 0.0 | 0.00 | 0.00 | 0.00 | 65 | 1012.9 |
| 20260904224607 | 70 | 0 | 0.0 | 0.0 | 0.00 | 0.00 | 0.00 | 64 | 1012.8 |
| 20260904224037 | 70 | 0 | 0.0 | 0.0 | 0.00 | 0.00 | 0.00 | 64 | 1012.7 |